Location: Newark
(43.0000°N, 1.6781°W)
Time: 10:25:49
(UTC+00:00)

AO-7 - Pass Details

Date: 07 December 2022
Orbit: 1440 x 1459 km, 101.9° (Epoch: 28 January)

Event Time Altitude Azimuth Distance (km) Brightness Sun altitude
Rises 02:51:40 0° 35° (NE) 4,545 ? -48.8°
Reaches altitude 10° 02:56:44 10° 62° (ENE) 3,564 ? -47.9°
Maximum altitude 03:00:11 13° 87° (E) 3,330 ? -47.3°
Drops below altitude 10° 03:03:38 10° 112° (ESE) 3,561 ? -46.7°
Sets 03:08:38 0° 139° (SE) 4,537 ? -45.8°
